Regional Weather Roundup
Issued by NWS Cleveland, OH

Home | Current Version | Previous Version | Text Only | Print | Product List | Glossary On
Versions: 1 2 3 4 5 6 7 8 9 10 11 12 13 14 15 16 17 18 19 20 21 22 23 24 25 26 27 28 29 30 31 32 33 34 35 36 37 38 39 40 41 42 43 44 45 46 47 48 49 50
480
ASUS41 KCLE 292112
RWRCLE
OHIO REGIONAL WEATHER ROUNDUP
NATIONAL WEATHER SERVICE WILMINGTON, OH
500 PM EDT MON MAY 29 2017

NOTE: "FAIR" INDICATES FEW OR NO CLOUDS BELOW 12,000 FEET WITH NO
SIGNIFICANT WEATHER AND/OR OBSTRUCTIONS TO VISIBILITY.

OHZ001>008-015>018-024>027-034-035-043-044-292200-
   NORTHWEST OHIO

CITY           SKY/WX    TMP DP  RH WIND       PRES   REMARKS
DEFIANCE       PTSUNNY   76  48  37 SW15G21   29.85S
FINDLAY        FAIR      80  49  33 SW10      29.87S
TOLEDO EXPRESS FAIR      78  49  35 SW15      29.83F
TOLEDO EXEC    FAIR      80  48  32 SW22G28   29.84F
LIMA           FAIR      78  51  38 SW10      29.89S
$$

OHZ009>014-019>023-028>033-038-089-292200-
   NORTHEAST OHIO

CITY           SKY/WX    TMP DP  RH WIND       PRES   REMARKS
CLE-HOPKINS    FAIR      81  51  35 SW20G29   29.88R
CLE-LAKEFRONT  FAIR      74  54  49 W15       29.85R
CUY CO. ARPT   PTSUNNY   77  52  41 SW15G25   29.87S
LORAIN-ELYRIA  FAIR      77  49  37 W22G29    29.88R
ASHTABULA      LGT RAIN  74  53  48 SW10      29.89S
AKRON-CANTON   PTSUNNY   75  49  39 SW10G21   29.92R
WOOSTER        FAIR      77  52  41 SW18G24   29.91F
MANSFIELD      PTSUNNY   73  54  51 S15G25    29.91R
YOUNGSTOWN     PTSUNNY   77  50  38 SW12      29.90F
$$

OHZ042-051>053-060>062-070>072-077>081-292200-
  SOUTHWEST OHIO

CITY           SKY/WX    TMP DP  RH WIND       PRES   REMARKS
CINC-COVINGTON PTSUNNY   80  53  39 SW12G20   29.93F
CINC-LUNKEN    FAIR      77  56  48 SW14      29.92F
HAMILTON       FAIR      83  56  39 SW9       29.92F
DAYTON         PTSUNNY   77  52  41 W16G29    29.92F
WRIGHT-PAT AFB PTSUNNY   77  51  39 SW15      29.91S
DAYTON GENERAL PTSUNNY   80  52  37 SW13      29.92S
WILMINGTON     PTSUNNY   79  56  45 W13       29.93F
$$

OHZ036-037-039>041-045>050-054>059-063>069-073>076-082>088-292200-
  CENTRAL AND SOUTHEAST OHIO

CITY           SKY/WX    TMP DP  RH WIND       PRES   REMARKS
COLUMBUS       PTSUNNY   80  53  39 W21G26    29.91S
OSU AIRPORT    FAIR      79  57  46 SW7       29.91F
BOLTON FIELD   PTSUNNY   81  55  41 SW13      29.92S
RICKENBACK AFB CLOUDY    78  50  37 W16       29.91S
NEWARK         PTSUNNY   77  49  37 SW14G20   29.91S
MARION         FAIR      80  46  30 W17G26    29.90S
LANCASTER      PTSUNNY   79  52  38 SW10G20   29.93S
ZANESVILLE     FAIR      80  51  36 SW8G23    29.93F
NEW PHILLY     PTSUNNY   77  52  41 S6G17     29.92S
$$




USA.gov is the U.S. government's official web portal to all federal, state and local government web resources and services.